Voltar ao catálogo

QIANFAN-101

AtivoComunicaçõesPO
NORAD 66043·PAYLOAD·🇨🇳 China

Lançado Oct 17, 2025 de Taiyuan Satellite Launch Center

Loading…

Próximas Passagens (próximas 24 horas)

TLE

AtualizadoSource: Space-Track

Época: Sep 14, 2026, 01:53 UTC

1 66043U 25233L   26257.07892415  .00000332  00000-0  13082-3 0  9997
2 66043  89.0052  30.3654 0014186 204.8490 155.2023 14.26858822 47301

Acompanhe QIANFAN-101 em tempo real com AllMySat

Download on the App Store